Regional Weather Roundup
Issued by NWS

Home | Current Version | Previous Version | Graphics & Text | Print | Product List | Glossary On
Versions: 1 2 3 4 5 6 7 8 9 10 11 12 13 14 15 16 17 18 19 20 21 22 23 24 25 26 27 28
000
ASUS45 KSLC 211010
RWRUT

UTAH REGIONAL WEATHER ROUNDUP
NATIONAL WEATHER SERVICE SALT LAKE CITY UT
300 AM MST TUE FEB 21 2017

UTZ001>011-023>025-211100-

NORTHERN UTAH

CITY           SKY/WX    TMP DP  RH WIND       PRES   REMARKS
BRIGHAM CITY     N/A     49  38  65 S20       29.99S
HILL AFB       CLEAR     49  38  65 S26G35    30.00S
LOGAN          CLOUDY    54  37  52 SW14G30   29.98R
OGDEN          CLEAR     50  38  63 S23G32    30.00R
SALT LAKE CITY PTCLDY    52  39  61 S25G36    30.02S
TOOELE VALLEY  CLEAR     54  37  54 S33G41    30.00F
WENDOVER       CLEAR     54  34  47 SW29G37   29.96S
HEBER CITY     CLOUDY    46  36  66 S3        30.11S
WEST JORDAN    CLEAR     52  46  78 SE36G44   30.03S

$$

UTZ011>015-024>027-211100-

CENTRAL/NORTHEAST UTAH

CITY           SKY/WX    TMP DP  RH WIND       PRES   REMARKS
PROVO AIRPORT  PTCLDY    49  37  63 SE5       30.13S
MOAB/CANYONLAN CLEAR     39  37  92 N3        30.23R
DELTA          CLEAR     46  39  76 S30G39    30.15R
PRICE          CLOUDY    40  36  86 E7        30.23R
ROOSEVELT      CLEAR     34  32  93 CALM      30.20S
VERNAL         CLEAR     33  30  88 SE3       30.17S

$$

UTZ013>016-019>022-027-211100-

SOUTHERN UTAH

CITY           SKY/WX    TMP DP  RH WIND       PRES   REMARKS
BRYCE CANYON   FOG       36  34  92 SE8       30.33S VSB 1   WCI  30
CEDAR CITY     CLEAR     43  38  82 SW20G26   30.24S
MILFORD        CLOUDY    46  41  82 S20       30.22S
ST GEORGE      PTSUNNY   51  44  77 SE8       30.28S
HANKSVILLE     CLEAR     37  34  87 E3        30.24F
BLANDING       CLOUDY    42  36  81 CALM      30.41S

$$

REGIONAL REPORTS     COLORADO/ARIZONA

CITY           SKY/WX    TMP DP  RH WIND       PRES   REMARKS
CRAIG, CO      CLOUDY    41  30  65 CALM      30.18S
GRAND JUNCTION CLOUDY    44  35  70 SE10      30.25R
RIFLE, CO      CLOUDY    40  35  83 E6        30.25S
MONTROSE, CO   CLOUDY    43  33  68 S8        30.31F
CORTEZ, CO     CLOUDY    39  36  89 CALM      30.36R
COLORADO CITY  CLOUDY    43  41  93 SE6       30.36S
PAGE, AZ       MOCLDY    44  36  73 CALM      30.30R
GRAND CANYON   CLEAR     32  31  96 NE3       30.40R
KINGMAN, AZ    CLEAR     43  39  86 SE9       30.33F
FLAGSTAFF, AZ  CLEAR     36  34  92 CALM      30.40S

$$

REGIONAL REPORTS    NEVADA/IDAHO/WYOMING

CITY           SKY/WX    TMP DP  RH WIND       PRES   REMARKS
LAS VEGAS, NV  PTCLDY    60  43  53 S8        30.19F
ELY, NY        PTCLDY    42  35  76 S20G35    30.08R
ELKO, NV       CLOUDY    43  34  70 W6        29.94R
POCATELLO, ID  CLOUDY    44  38  79 SW12      29.90S
BURLEY, ID     MOCLDY    48  36  63 S16       29.87R
FORT BRIDGER,    N/A     42  32  69 SW16G23   30.08S
EVANSTON, WY   MOCLDY    38  31  76 SW30G38   30.03S WCI  26
ROCK SPRINGS,  CLOUDY    39  29  67 SW16      30.04R WCI  30
KEMMERER, WY     N/A     37  32  81 SW18G25   30.03S WCI  27

$$




USA.gov is the U.S. government's official web portal to all federal, state and local government web resources and services.